Hourly Weather Alifanov

Today, 21 April, Wednesday

Time Temperature Precipitation Wind Pressure Humidity
00:00 +10°C° 0 mm 6 mps 751 mmHg 88%
01:00 +9°C° 0.1 mm 6 mps 752 mmHg 86%
02:00 +9°C° 0.1 mm 6 mps 752 mmHg 85%
03:00 +8°C° 0.1 mm 6 mps 753 mmHg 84%
04:00 +8°C° 0 mm 7 mps 753 mmHg 85%
05:00 +8°C° 0 mm 7 mps 753 mmHg 87%
06:00 +9°C° 0 mm 7 mps 753 mmHg 88%
07:00 +9°C° 0 mm 7 mps 754 mmHg 86%
08:00 +9°C° 0 mm 7 mps 755 mmHg 84%
09:00 +10°C° 0 mm 7 mps 756 mmHg 82%
10:00 +11°C° 0 mm 6 mps 756 mmHg 77%
11:00 +11°C° 0 mm 6 mps 757 mmHg 71%
12:00 +13°C° 0 mm 6 mps 757 mmHg 66%
13:00 +14°C° 0 mm 6 mps 757 mmHg 61%
14:00 +15°C° 0 mm 6 mps 757 mmHg 57%
15:00 +15°C° 0 mm 6 mps 757 mmHg 53%
16:00 +15°C° 0 mm 6 mps 757 mmHg 55%
17:00 +15°C° 0 mm 6 mps 758 mmHg 57%
18:00 +14°C° 0 mm 5 mps 758 mmHg 59%
19:00 +13°C° 0 mm 5 mps 759 mmHg 65%
20:00 +11°C° 0 mm 4 mps 759 mmHg 71%
21:00 +10°C° 0 mm 3 mps 760 mmHg 77%
22:00 +9°C° 0 mm 3 mps 760 mmHg 78%
23:00 +9°C° 0 mm 3 mps 760 mmHg 79%

Tomorrow, 22 April, Thursday

Time Temperature Precipitation Wind Pressure Humidity
00:00 +8°C° 0 mm 3 mps 760 mmHg 81%
01:00 +8°C° 0 mm 3 mps 761 mmHg 81%
02:00 +8°C° 0 mm 3 mps 761 mmHg 81%
03:00 +8°C° 0 mm 2 mps 761 mmHg 82%
04:00 +8°C° 0 mm 2 mps 761 mmHg 82%
05:00 +8°C° 0 mm 2 mps 761 mmHg 83%
06:00 +8°C° 0 mm 2 mps 761 mmHg 83%
07:00 +10°C° 0 mm 2 mps 762 mmHg 76%
08:00 +13°C° 0 mm 2 mps 762 mmHg 69%
09:00 +15°C° 0 mm 2 mps 762 mmHg 62%
10:00 +16°C° 0 mm 2 mps 762 mmHg 57%
11:00 +17°C° 0 mm 2 mps 762 mmHg 51%
12:00 +18°C° 0 mm 2 mps 762 mmHg 46%
13:00 +18°C° 0 mm 2 mps 762 mmHg 45%
14:00 +18°C° 0 mm 2 mps 762 mmHg 43%
15:00 +19°C° 0 mm 2 mps 761 mmHg 42%
16:00 +18°C° 0 mm 2 mps 761 mmHg 46%
17:00 +19°C° 0 mm 1 mps 761 mmHg 50%
18:00 +18°C° 0 mm 1 mps 761 mmHg 54%
19:00 +16°C° 0 mm 1 mps 762 mmHg 55%
20:00 +16°C° 0 mm 1 mps 762 mmHg 56%
21:00 +14°C° 0 mm 0 mps 762 mmHg 58%
22:00 +15°C° 0.1 mm 1 mps 762 mmHg 61%
23:00 +14°C° 0.1 mm 1 mps 762 mmHg 64%

Day after tomorrow, 23 April, Friday

Time Temperature Precipitation Wind Pressure Humidity
00:00 +14°C° 0.1 mm 2 mps 762 mmHg 68%
01:00 +13°C° 0.2 mm 2 mps 762 mmHg 73%
02:00 +11°C° 0.2 mm 3 mps 762 mmHg 78%
03:00 +11°C° 0.2 mm 3 mps 762 mmHg 84%
04:00 +11°C° 0.2 mm 3 mps 762 mmHg 82%
05:00 +10°C° 0.2 mm 3 mps 762 mmHg 81%
06:00 +10°C° 0.2 mm 2 mps 762 mmHg 80%
07:00 +12°C° 0 mm 2 mps 762 mmHg 74%
08:00 +14°C° 0 mm 2 mps 762 mmHg 69%
09:00 +15°C° 0 mm 2 mps 762 mmHg 63%
10:00 +15°C° 0.1 mm 2 mps 762 mmHg 62%
11:00 +16°C° 0.1 mm 2 mps 762 mmHg 61%
12:00 +16°C° 0.1 mm 2 mps 761 mmHg 59%
13:00 +17°C° 0.1 mm 2 mps 761 mmHg 55%
14:00 +18°C° 0.1 mm 2 mps 761 mmHg 51%
15:00 +18°C° 0.1 mm 2 mps 760 mmHg 47%
16:00 +18°C° 0 mm 2 mps 760 mmHg 47%
17:00 +18°C° 0 mm 2 mps 760 mmHg 48%
18:00 +18°C° 0 mm 2 mps 759 mmHg 48%
19:00 +16°C° 0 mm 2 mps 759 mmHg 54%
20:00 +14°C° 0 mm 3 mps 759 mmHg 60%
21:00 +13°C° 0 mm 3 mps 759 mmHg 66%
22:00 +12°C° 0 mm 3 mps 759 mmHg 68%
23:00 +11°C° 0 mm 3 mps 759 mmHg 71%

24 April, Saturday

Time Temperature Precipitation Wind Pressure Humidity
00:00 +12°C° 0 mm 2 mps 759 mmHg 74%
01:00 +12°C° 0 mm 2 mps 758 mmHg 74%
02:00 +12°C° 0 mm 2 mps 758 mmHg 73%
03:00 +10°C° 0 mm 2 mps 758 mmHg 72%
04:00 +10°C° 0.2 mm 2 mps 758 mmHg 75%
05:00 +10°C° 0.2 mm 3 mps 758 mmHg 78%
06:00 +10°C° 0.2 mm 3 mps 758 mmHg 82%
07:00 +11°C° 0.3 mm 4 mps 758 mmHg 76%
08:00 +12°C° 0.3 mm 4 mps 757 mmHg 71%
09:00 +14°C° 0.3 mm 5 mps 757 mmHg 66%
10:00 +15°C° 0.3 mm 6 mps 757 mmHg 61%
11:00 +15°C° 0.3 mm 7 mps 756 mmHg 57%
12:00 +16°C° 0.3 mm 8 mps 756 mmHg 52%
13:00 +13°C° 0.5 mm 8 mps 757 mmHg 62%
14:00 +11°C° 0.5 mm 7 mps 757 mmHg 73%
15:00 +8°C° 0.5 mm 6 mps 758 mmHg 83%
16:00 +9°C° 0 mm 5 mps 758 mmHg 75%
17:00 +11°C° 0 mm 4 mps 758 mmHg 66%
18:00 +12°C° 0 mm 3 mps 758 mmHg 57%
19:00 +11°C° 0 mm 3 mps 758 mmHg 61%
20:00 +9°C° 0 mm 3 mps 758 mmHg 65%
21:00 +8°C° 0 mm 3 mps 759 mmHg 69%
22:00 +8°C° 0 mm 3 mps 759 mmHg 71%
23:00 +8°C° 0 mm 3 mps 759 mmHg 74%

25 April, Sunday

Time Temperature Precipitation Wind Pressure Humidity
00:00 +7°C° 0 mm 3 mps 759 mmHg 76%
01:00 +7°C° 0 mm 3 mps 759 mmHg 78%
02:00 +7°C° 0 mm 3 mps 759 mmHg 80%
03:00 +5°C° 0 mm 3 mps 759 mmHg 82%
04:00 +5°C° 0 mm 3 mps 759 mmHg 82%
05:00 +6°C° 0 mm 2 mps 759 mmHg 81%
06:00 +7°C° 0 mm 1 mps 759 mmHg 81%
07:00 +8°C° 0 mm 2 mps 759 mmHg 74%
08:00 +9°C° 0 mm 3 mps 759 mmHg 67%
09:00 +11°C° 0 mm 4 mps 759 mmHg 60%
10:00 +11°C° 0 mm 4 mps 759 mmHg 56%
11:00 +12°C° 0 mm 4 mps 759 mmHg 53%
12:00 +12°C° 0 mm 5 mps 759 mmHg 49%
13:00 +13°C° 0 mm 4 mps 758 mmHg 47%
14:00 +13°C° 0 mm 4 mps 758 mmHg 44%
15:00 +13°C° 0 mm 4 mps 758 mmHg 41%
16:00 +13°C° 0 mm 3 mps 758 mmHg 44%
17:00 +12°C° 0 mm 3 mps 758 mmHg 47%
18:00 +13°C° 0 mm 2 mps 758 mmHg 50%
19:00 +12°C° 0 mm 2 mps 758 mmHg 50%
20:00 +10°C° 0 mm 2 mps 759 mmHg 50%
21:00 +10°C° 0 mm 1 mps 759 mmHg 50%
22:00 +10°C° 0 mm 1 mps 758 mmHg 50%
23:00 +10°C° 0 mm 1 mps 758 mmHg 50%

26 April, Monday

Time Temperature Precipitation Wind Pressure Humidity
00:00 +10°C° 0 mm 1 mps 758 mmHg 50%
01:00 +9°C° 0 mm 1 mps 758 mmHg 51%
02:00 +9°C° 0 mm 1 mps 758 mmHg 53%
03:00 +8°C° 0 mm 2 mps 758 mmHg 55%
04:00 +8°C° 0 mm 1 mps 758 mmHg 56%
05:00 +8°C° 0 mm 1 mps 758 mmHg 58%
06:00 +8°C° 0 mm 1 mps 758 mmHg 59%
07:00 +10°C° 0 mm 1 mps 757 mmHg 53%
08:00 +11°C° 0 mm 1 mps 757 mmHg 47%
09:00 +13°C° 0 mm 1 mps 757 mmHg 41%
10:00 +14°C° 0 mm 1 mps 757 mmHg 39%
11:00 +14°C° 0 mm 2 mps 757 mmHg 36%
12:00 +15°C° 0 mm 2 mps 757 mmHg 34%
13:00 +16°C° 0 mm 3 mps 756 mmHg 34%
14:00 +16°C° 0 mm 3 mps 756 mmHg 34%
15:00 +16°C° 0 mm 3 mps 755 mmHg 34%
16:00 +15°C° 0 mm 4 mps 755 mmHg 38%
17:00 +14°C° 0 mm 4 mps 755 mmHg 42%
18:00 +14°C° 0 mm 4 mps 755 mmHg 46%
19:00 +12°C° 0 mm 5 mps 755 mmHg 53%
20:00 +10°C° 0 mm 5 mps 755 mmHg 61%
21:00 +8°C° 0 mm 5 mps 756 mmHg 68%
22:00 +7°C° 0.1 mm 5 mps 756 mmHg 72%
23:00 +6°C° 0.1 mm 4 mps 756 mmHg 77%
Show more

We Need Your Consent

Meteoprog and our Service Providers may store and access personal data such as cookies, device identifiers or other similar technologies on your device and process such data to personalise content and ads, as well as provide social media features and to analyse the traffic.

  • Store and/or access information on your device

    Cookies, device identifiers or other information can be stored or accessed on your device for the purposes indicated above.

  • Personalised ads and content, ad and content measurement, audience insights, and products development

    Ads and content can be personalised based on a profile. More data can be added to better personalise ads and content. Ad and content performance can be measured. Insights about the audience who saw the ads and content can be derived. Such data can be used to develop or improve user’s experience, systems and software.

By clicking ‘I Agree’ you will allow the use of indicated cookies, device identifiers, web beacons or other similar technologies. Your settings can be changed in the browser on your device.

For certain purposes, legitimate interests may be relied on, rather than consent. You can read more about this in our Privacy and Cookie Policy.